This demonstration page uses our WeatherBlox Daily Observations layout. Learn more.

Left ArrowRight Arrow

Hourly Observations for January 29, 2017

Temp ( °F °C ) Dew Point ( °F °C ) Humidity (%) Winds ( mph kmh ) Pressure ( in mb ) Visibility ( mi km ) Precip ( " mm )
12:15 am 00:15 Cloudy 32 0 28 -2 87 87 W 3 6 29.77 1008 10 16.0934 0 0
12:35 am 00:35 Cloudy 34 1 27 -3 75 75 W 3 6 29.77 1008 10 16.0934 0 0
12:55 am 00:55 Cloudy 36 2 27 -3 70 70 Calm 29.77 1008 10 16.0934 0 0
1:15 am 01:15 Cloudy 36 2 27 -3 70 70 Calm 29.77 1008 10 16.0934 0 0
1:35 am 01:35 Cloudy 36 2 27 -3 70 70 Calm 29.77 1008 10 16.0934 0 0
1:55 am 01:55 Cloudy 36 2 27 -3 70 70 SW 5 7 29.77 1008 10 16.0934 0 0
2:15 am 02:15 Cloudy 36 2 27 -3 70 70 Calm 29.77 1008 10 16.0934 0 0
2:35 am 02:35 Cloudy 36 2 27 -3 70 70 Calm 29.77 1008 10 16.0934 0 0
2:55 am 02:55 Cloudy 36 2 28 -2 75 75 Calm 29.77 1008 10 16.0934 0 0
3:15 am 03:15 Cloudy 37 3 27 -3 65 65 NNW 8 13 29.77 1008 10 16.0934 0 0
3:35 am 03:35 Cloudy 37 3 30 -1 75 75 NW 8 13 29.77 1008 10 16.0934 0 0
3:55 am 03:55 Cloudy 37 3 30 -1 75 75 NW 8 13 29.77 1008 10 16.0934 0 0
4:15 am 04:15 Mostly Cloudy 36 2 30 -1 81 81 NNW 7 11 29.77 1008 10 16.0934 0 0
4:35 am 04:35 Mostly Cloudy 36 2 30 -1 81 81 NW 3 6 29.77 1008 10 16.0934 0 0
4:55 am 04:55 Partly Cloudy 36 2 30 -1 81 81 Calm 29.8 1009 10 16.0934 0 0
5:15 am 05:15 Partly Cloudy 34 1 28 -2 81 81 WNW 5 7 29.8 1009 10 16.0934 0 0
5:35 am 05:35 Partly Cloudy 34 1 28 -2 81 81 W 3 6 29.8 1009 10 16.0934 0 0
5:55 am 05:55 Partly Cloudy 36 2 28 -2 75 75 WSW 3 6 29.8 1009 10 16.0934 0 0
6:15 am 06:15 Partly Cloudy 32 0 28 -2 87 87 NW 7 11 29.8 1009 10 16.0934 0 0
6:35 am 06:35 Clear 36 2 28 -2 75 75 NNW 7 11 29.8 1009 10 16.0934 0 0
6:55 am 06:55 Partly Cloudy 34 1 28 -2 81 81 NW 7 11 29.8 1009 10 16.0934 0 0
7:15 am 07:15 Partly Cloudy 34 1 28 -2 81 81 NW 8 13 29.8 1009 10 16.0934 0 0
7:35 am 07:35 Mostly Cloudy 36 2 28 -2 75 75 Calm 29.8 1009 10 16.0934 0 0
7:55 am 07:55 Mostly Cloudy 36 2 28 -2 75 75 Calm 29.83 1010 10 16.0934 0 0
8:15 am 08:15 Mostly Cloudy 36 2 28 -2 75 75 Calm 29.83 1010 10 16.0934 0 0
8:35 am 08:35 Mostly Cloudy 34 1 30 -1 87 87 NW 8 13 29.83 1010 10 16.0934 0 0
8:55 am 08:55 Cloudy 37 3 28 -2 70 70 Calm 29.83 1010 10 16.0934 0 0
9:15 am 09:15 Cloudy 37 3 28 -2 70 70 NE 3 6 29.83 1010 10 16.0934 0 0
9:35 am 09:35 Cloudy 37 3 28 -2 70 70 Calm 29.85 1011 10 16.0934 0 0
9:55 am 09:55 Cloudy 37 3 28 -2 70 70 Calm 29.85 1011 10 16.0934 0 0
10:15 am 10:15 Cloudy 37 3 28 -2 70 70 WSW 3 6 29.85 1011 10 16.0934 0 0
10:35 am 10:35 Cloudy 39 4 28 -2 65 65 WNW 10 17 29.85 1011 10 16.0934 0 0
10:55 am 10:55 Cloudy 41 5 28 -2 61 61 W 12 19 29.83 1010 10 16.0934 0 0
11:15 am 11:15 Mostly Cloudy 43 6 28 -2 57 57 W 15 24 29.83 1010 10 16.0934 0 0
11:35 am 11:35 Cloudy 43 6 27 -3 53 53 W 13 20 29.83 1010 10 16.0934 0 0
11:55 am 11:55 Cloudy 43 6 27 -3 53 53 WNW 13 20 29.83 1010 10 16.0934 0 0
12:15 pm 12:15 Mostly Cloudy 43 6 27 -3 53 53 WNW 14 22 29.8 1009 10 16.0934 0 0
12:35 pm 12:35 Cloudy 43 6 27 -3 53 53 NW 12 19 29.8 1009 10 16.0934 0 0
12:55 pm 12:55 Cloudy 43 6 27 -3 53 53 W 7 11 29.8 1009 10 16.0934 0 0
1:15 pm 13:15 Cloudy 43 6 27 -3 53 53 W 8 13 29.77 1008 10 16.0934 0 0
1:35 pm 13:35 Cloudy 43 6 27 -3 53 53 W 6 9 29.77 1008 10 16.0934 0 0
1:55 pm 13:55 Cloudy 43 6 27 -3 53 53 W 6 9 29.77 1008 10 16.0934 0 0
2:15 pm 14:15 Cloudy 43 6 27 -3 53 53 WNW 7 11 29.77 1008 10 16.0934 0 0
2:35 pm 14:35 Cloudy 43 6 27 -3 53 53 NW 6 9 29.77 1008 10 16.0934 0 0
2:55 pm 14:55 Mostly Cloudy 43 6 27 -3 53 53 NNW 7 11 29.74 1007 10 16.0934 0 0
3:15 pm 15:15 Mostly Cloudy 43 6 27 -3 53 53 NW 3 6 29.77 1008 10 16.0934 0 0
3:35 pm 15:35 Cloudy 43 6 27 -3 53 53 NW 6 9 29.77 1008 10 16.0934 0 0
3:55 pm 15:55 Cloudy 43 6 27 -3 53 53 W 3 6 29.77 1008 10 16.0934 0 0
4:15 pm 16:15 Cloudy 43 6 27 -3 53 53 NNW 6 9 29.77 1008 10 16.0934 0 0
4:35 pm 16:35 Cloudy 43 6 27 -3 53 53 NW 3 6 29.77 1008 10 16.0934 0 0
4:55 pm 16:55 Cloudy 43 6 27 -3 53 53 N 5 7 29.77 1008 10 16.0934 0 0
5:15 pm 17:15 Cloudy 41 5 27 -3 57 57 N 5 7 29.77 1008 10 16.0934 0 0
5:35 pm 17:35 Cloudy 41 5 27 -3 57 57 NNW 5 7 29.77 1008 10 16.0934 0 0
5:55 pm 17:55 Cloudy 41 5 28 -2 61 61 SSW 5 7 29.8 1009 10 16.0934 0 0
6:15 pm 18:15 Cloudy with Light Rain 41 5 30 -1 66 66 Calm 29.8 1009 10 16.0934 0 0
6:35 pm 18:35 Cloudy 39 4 30 -1 70 70 W 3 6 29.8 1009 10 16.0934 0 0
6:55 pm 18:55 Cloudy 37 3 30 -1 75 75 WNW 5 7 29.8 1009 10 16.0934 0 0
7:15 pm 19:15 Cloudy 37 3 32 0 81 81 WNW 6 9 29.8 1009 10 16.0934 0 0
7:35 pm 19:35 Cloudy 37 3 32 0 81 81 WNW 6 9 29.8 1009 10 16.0934 0 0
7:55 pm 19:55 Cloudy 37 3 32 0 81 81 WNW 8 13 29.8 1009 10 16.0934 0 0
8:15 pm 20:15 Cloudy 37 3 32 0 81 81 Calm 29.8 1009 10 16.0934 0 0
8:35 pm 20:35 Cloudy 36 2 34 1 93 93 N 5 7 29.8 1009 10 16.0934 0 0
8:55 pm 20:55 Cloudy 36 2 34 1 93 93 N 5 7 29.8 1009 10 16.0934 0 0
9:15 pm 21:15 Cloudy 36 2 34 1 93 93 N 3 6 29.8 1009 10 16.0934 0 0
9:35 pm 21:35 Cloudy 36 2 34 1 93 93 NNE 3 6 29.8 1009 10 16.0934 0 0
9:55 pm 21:55 Cloudy 36 2 34 1 93 93 NE 6 9 29.8 1009 10 16.0934 0 0
10:15 pm 22:15 Cloudy 36 2 32 0 87 87 NNE 5 7 29.8 1009 10 16.0934 0 0
10:35 pm 22:35 Cloudy 36 2 32 0 87 87 NNE 5 7 29.8 1009 10 16.0934 0 0
10:55 pm 22:55 Cloudy 36 2 32 0 87 87 NE 3 6 29.8 1009 10 16.0934 0 0
11:15 pm 23:15 Cloudy 36 2 32 0 87 87 NE 3 6 29.8 1009 10 16.0934 0 0
11:35 pm 23:35 Cloudy 36 2 32 0 87 87 NNE 5 7 29.77 1008 10 16.0934 0 0
11:55 pm 23:55 Cloudy 36 2 32 0 87 87 NNE 5 7 29.77 1008 10 16.0934 0 0

Powered by AerisWeather